Location: Kellogg
(38.0159°N, 90.0546°W)
Time: 01:47:50
(UTC+00:00)

Vanguard 2 - Pass Details

Date: 27 September 2024
Orbit: 552 x 2910 km, 32.9° (Epoch: 15 October)

Event Time Altitude Azimuth Distance (km) Brightness Sun altitude
Rises 11:27:55 0° 257° (WSW) 2,992 - -5.7°
Exits shadow 11:29:19 - 247° (WSW) 2,658 9.7 -5.5°
Reaches altitude 10° 11:31:25 10° 227° (SW) 2,348 9.6 -5.1°
Maximum altitude 11:33:45 13° 201° (SSW) 2,368 9.8 -4.6°
Drops below altitude 10° 11:36:27 10° 177° (S) 2,825 10.5 -4.1°
Sets 11:41:44 0° 152° (SSE) 4,344 11.8 -3.0°
